Погода в Поповой-Шапке

Северная Македония     42°00′49″N   20°53′01″E
темп.,
°C
ветер,
м/с
пор.,
м/с
влажн.,
%
обл.,
%
осадки,
мм/ч
давл.,
гПа
погр.,
м
8 марта, пн
пн801:000вюв00728 0.0 102022
04:000юз00730 0.0 101922
07:00+1юв00700 0.0 101830
10:00+6юв22620 0.0 1018456
13:00+8вюв225920 0.2 1015826
16:00+6вюв217889 0.4 1015534
19:00+4зюз009093 0.7 101624
22:00+4св2291100 0.2 1018134
9 марта, вт
вт901:00+3всв2293100 0.6 1018179
04:00+2св1291100 1.3 1017190
07:00+1св1189100 1.8 1018139
10:00+3в2289100 0.4 1017306
13:00+3в1192100 1.3 1016230
16:00+2ссв1196100 2.0 1015110
19:00+3всв1197100 3.2 101591
22:00+3ю1198100 1.2 101562
10 марта, ср
ср1001:00+3ююз1198100 1.3 101475
04:00+3юз229696 0.1 1012110
07:00+4юз239198 0.4 1012193
10:00+4юв2296100 3.0 1013188
13:00+3в2297100 12.3 1014206
16:00+1св2397100 4.1 1014183
19:00−1ссв2293100 5.6 1017212
22:00−2с1294100 1.4 1019170
11 марта, чт
чт1101:00−2с1191100 3.4 102082
04:00−4ссз1286100 0.1 102027
07:00−3сз227998 0.1 102288
10:000в22640 0.0 1023729
13:00+3в22610 0.0 1022979
16:00+3вюв22631 0.0 1022825
19:00−2з11781 0.0 102521
22:00−2з12730 0.0 102621
12 марта, пт
пт1201:00−2зюз11689 0.0 102622
04:00−2юз116744 0.0 102422
07:00−1ююз116842 0.0 102494
10:00+3юв227387 0.0 1023357
13:00+5юв227392 0.0 1022439
16:00+6юв1176100 0.0 1020219
19:00+2всв0084100 0.0 102122
22:00+2зсз1180100 0.0 102122